User: anonymous   Login
Location: Enid
(36.3960°N, 97.8780°W)
Time: 15:35:11
(UTC-05:00)
Language:

Hubble Space Telescope - Orbit

View from above orbital plane
View from above orbital plane
View from above satellite
View from above satellite

Ground track
Ground track

The orbit data is extracted from the following two-line orbital elements,

1 20580U 90037B   17174.85824074 +.00000476 +00000-0 +18370-4 0  9992
2 20580 028.4703 323.4400 0002577 244.5278 353.5763 15.08787275291295
Epoch (UTC): 23 June 2017 20:35:52
Eccentricity: 0.0002577
inclination: 28.4703°
perigee height: 538 km
apogee height: 541 km
right ascension of ascending node: 323.4400°
argument of perigee: 244.5278°
revolutions per day: 15.08787275
mean anomaly at epoch: 353.5763°
orbit number at epoch: 29129

The dashed part of the orbit path shows where the satellite is in the earth's shadow,  

DLR